Regional Weather Roundup
Issued by NWS Cleveland, OH

Home | Current Version | Previous Version | Text Only | Print | Product List | Glossary On
Versions: 1 2 3 4 5 6 7 8 9 10 11 12 13 14 15 16 17 18 19 20 21 22 23 24 25 26 27 28 29 30 31 32 33 34 35 36 37 38 39 40 41 42 43 44 45 46 47 48 49 50
000
ASUS41 KCLE 230412
RWRCLE
OHIO REGIONAL WEATHER ROUNDUP
NATIONAL WEATHER SERVICE WILMINGTON, OH
1200 AM EDT MON OCT 23 2017

NOTE: "FAIR" INDICATES FEW OR NO CLOUDS BELOW 12,000 FEET WITH NO
SIGNIFICANT WEATHER AND/OR OBSTRUCTIONS TO VISIBILITY.

OHZ001>008-015>018-024>027-034-035-043-044-230500-
   NORTHWEST OHIO

CITY           SKY/WX    TMP DP  RH WIND       PRES   REMARKS
DEFIANCE       FAIR      65  49  56 S6        30.01F
FINDLAY        FAIR      64  47  53 S9        30.03F
TOLEDO EXPRESS FAIR      66  50  56 S5        30.02F
TOLEDO EXEC    FAIR      65  49  56 SE9       30.03F
LIMA           FAIR      63  49  60 S9        30.03F
$$

OHZ009>014-019>023-028>033-038-089-230500-
   NORTHEAST OHIO

CITY           SKY/WX    TMP DP  RH WIND       PRES   REMARKS
CLE-HOPKINS    MOCLDY    63  50  62 S9        30.09F
CLE-LAKEFRONT  FAIR      66  48  52 S7        30.07F
CUY CO. ARPT   NOT AVBL
LORAIN-ELYRIA  NOT AVBL
ASHTABULA      FAIR      64  51  62 S9        30.13F
AKRON-CANTON   CLOUDY    63  48  58 SE10      30.12F
WOOSTER        FAIR      50  48  93 SE3       30.11F
MANSFIELD      FAIR      62  50  64 S10       30.09F
YOUNGSTOWN     CLOUDY    64  51  62 SE8       30.14F
$$

OHZ042-051>053-060>062-070>072-077>081-230500-
  SOUTHWEST OHIO

CITY           SKY/WX    TMP DP  RH WIND       PRES   REMARKS
CINC-COVINGTON CLOUDY    67  53  61 SE12      30.02F
CINC-LUNKEN    FAIR      60  56  86 CALM      30.03F
HAMILTON       FAIR      61  53  75 CALM      30.03F
DAYTON         CLOUDY    63  50  62 SE10      30.04F
WRIGHT-PAT AFB FAIR      65  48  53 SE9       30.03F
DAYTON GENERAL FAIR      66  49  54 SE9       30.03F
WILMINGTON     FAIR      63  51  65 SE7       30.05F
$$

OHZ036-037-039>041-045>050-054>059-063>069-073>076-082>088-230500-
  CENTRAL AND SOUTHEAST OHIO

CITY           SKY/WX    TMP DP  RH WIND       PRES   REMARKS
COLUMBUS       CLOUDY    65  51  60 SE5       30.07F
OSU AIRPORT    FAIR      62  53  72 SE6       30.07F
BOLTON FIELD   FAIR      60  51  72 SE5       30.08F
RICKENBACK AFB FAIR      60  51  70 SE5       30.07F
NEWARK         FAIR      52  49  89 W3        30.09F
MARION         FAIR      63  49  60 S8        30.07F
LANCASTER      FAIR      57  53  86 SE3       30.09F
ZANESVILLE     FAIR      62  50  64 SE9       30.11F
NEW PHILLY     FAIR      56  51  84 SE6       30.13F
$$




USA.gov is the U.S. government's official web portal to all federal, state and local government web resources and services.